Regional Weather Roundup
Issued by NWS Charleston, WV

Home | Current Version | Previous Version | Graphics & Text | Print | Product List | Glossary On
Versions: 1 2 3 4 5 6 7 8 9 10 11 12 13 14 15 16 17 18 19 20 21 22 23 24 25 26 27 28 29 30 31 32 33 34 35 36 37 38 39 40 41 42 43 44 45 46 47 48 49 50
646
ASUS41 KRLX 010110
RWRRLX
West Virginia Regional Weather Roundup
National Weather Service Charleston WV
900 PM EDT FRI SEP 30 2016

Note: "fair" indicates few or no clouds below 12,000 feet with no
significant weather and/or obstructions to visibility.

WVZ003-010200-
Northern Panhandle of West Virginia

CITY           SKY/WX    TMP DP  RH WIND       PRES   REMARKS
WHEELING       MOCLDY    60  55  83 E15       30.07S
$$

WVZ009-010200-
Northwest West Virginia

CITY           SKY/WX    TMP DP  RH WIND       PRES   REMARKS
PARKERSBURG    CLOUDY    63  62  97 CALM      30.05R FOG
$$

WVZ006-010200-
Western West Virginia

CITY           SKY/WX    TMP DP  RH WIND       PRES   REMARKS
HUNTINGTON     CLEAR     59  54  83 CALM      30.04R
$$

WVZ015-010200-
West Central West Virginia

CITY           SKY/WX    TMP DP  RH WIND       PRES   REMARKS
CHARLESTON     MOCLDY    61  58  90 S3        30.05R
$$

WVZ022-031-010200-
North Central West Virginia

CITY           SKY/WX    TMP DP  RH WIND       PRES   REMARKS
CLARKSBURG     PTCLDY    59  54  83 NE6       30.06R
MORGANTOWN     MOCLDY    62  52  69 E6G17     30.09R
$$

WVZ025-035-042-045-010200-
Southern West Virginia

CITY           SKY/WX    TMP DP  RH WIND       PRES   REMARKS
BECKLEY        CLOUDY    58  56  93 NE3       30.08S
LOGAN          CLOUDY    61  57  88 CALM      30.06S
BLUEFIELD      CLOUDY    56  54  93 CALM      30.10R
LEWISBURG      CLOUDY    62  58  88 E6        30.09R
$$

WVZ047-010200-
Northern Mountains of West Virginia

CITY           SKY/WX    TMP DP  RH WIND       PRES   REMARKS
ELKINS         LGT RAIN  60  52  74 CALM      30.10R
$$

WVZ052-010200-
Eastern Panhandle of West Virginia

CITY           SKY/WX    TMP DP  RH WIND       PRES   REMARKS
MARTINSBURG    CLOUDY    57  56  96 N8        30.13S FOG
PETERSBURG     RAIN      58  56  94 NW3       30.15R
$$




USA.gov is the U.S. government's official web portal to all federal, state and local government web resources and services.